Theta_e
306 308 310 308 307 296 301 303 299 301 302 301 295 297 295 292 290 292 292 293 293 295 299 301 302 304 311 317 320 322 322 323 323 323 325 327 329 331 333 334 335 336 336 336 337 337 338 339 340 340 341 342 343 344 344 344 346 347 348 349 349 349 349
307 310 310 310 309 303 299 298 302 302 305 302 297 290 290 288 286 287 289 292 290 292 292 300 299 300 302 307 314 320 321 322 322 323 324 327 329 331 333 335 336 336 336 337 337 338 339 339 340 341 341 342 343 344 344 344 345 345 347 349 349 349 349
301 308 306 305 308 309 304 302 306 302 293 294 295 292 288 284 284 284 286 291 292 292 293 296 299 300 300 301 308 314 318 320 321 323 324 326 329 331 332 333 335 335 336 336 336 337 339 340 342 342 343 343 343 344 345 345 345 346 347 349 349 350 350
300 301 303 296 298 305 308 304 304 304 297 298 293 295 291 290 284 286 286 289 290 295 295 298 301 301 301 300 302 309 315 318 321 322 324 325 327 329 331 333 334 335 336 337 337 337 337 339 340 342 343 343 343 344 345 345 346 346 347 347 349 348 349
299 293 298 298 300 297 299 299 298 300 299 298 299 295 291 291 283 283 283 286 289 293 298 300 301 302 302 302 301 307 313 317 319 322 324 325 327 329 331 333 334 335 336 337 337 338 338 340 341 343 343 343 344 344 344 345 344 345 345 347 348 348 349
291 294 299 300 300 302 299 299 298 299 297 293 292 291 294 291 290 283 283 286 290 296 303 303 302 303 304 303 303 305 312 316 319 322 324 325 327 329 331 333 335 336 336 337 338 338 338 339 340 341 343 344 344 344 344 345 345 345 345 346 347 348 348
292 296 300 303 303 302 302 300 298 301 297 295 293 287 290 293 292 294 290 287 293 300 302 304 305 305 306 306 304 303 310 316 319 322 324 326 328 329 331 333 335 336 337 337 337 337 337 338 339 341 342 343 344 344 345 345 345 345 346 347 348 348 348
294 297 300 301 303 303 300 300 300 299 298 299 298 296 292 293 291 293 289 288 294 298 303 304 305 306 306 306 306 303 309 316 320 322 323 325 327 329 332 334 335 336 337 337 337 337 337 337 338 340 341 343 344 345 345 346 345 346 346 347 348 348 348
289 295 298 298 301 301 297 296 299 300 302 301 297 296 294 294 292 295 289 288 294 300 310 307 307 305 305 305 305 306 309 316 320 322 323 326 328 330 331 333 334 335 336 336 336 337 337 337 338 339 341 342 344 345 346 346 346 347 347 348 348 348 348
281 283 284 285 288 291 294 297 300 300 300 299 296 293 292 291 293 294 291 292 295 299 301 302 301 303 304 306 306 306 311 315 319 322 324 326 328 329 331 333 334 334 335 336 336 337 337 338 338 339 340 342 344 345 346 347 347 348 348 349 348 348 348
282 285 286 291 294 292 289 292 294 294 299 301 299 294 290 291 290 292 295 296 297 300 302 303 303 302 302 303 302 304 308 314 320 322 324 326 328 329 331 333 334 335 335 335 336 337 337 338 338 339 340 341 343 345 346 348 349 349 349 349 349 348 348
289 290 290 293 294 289 290 290 291 295 297 299 298 295 294 294 291 290 294 297 297 299 302 303 303 301 302 302 301 304 307 314 319 322 324 333 328 329 331 332 333 333 334 335 336 336 337 338 338 340 341 342 343 344 346 348 349 350 350 350 349 349 349
291 292 292 293 293 292 292 293 294 295 299 299 296 298 296 297 295 293 295 296 297 300 302 304 304 303 304 303 303 305 309 315 320 321 323 326 327 328 330 331 333 334 334 335 335 336 337 338 338 339 340 341 342 344 346 348 350 350 351 350 350 350 349
289 290 291 293 291 293 294 294 295 297 299 300 299 298 298 299 297 298 298 297 298 302 303 303 303 303 303 305 311 311 309 314 319 321 323 325 326 327 329 330 332 333 335 335 336 336 337 337 338 339 340 341 341 342 344 347 349 351 352 351 350 350 350
287 290 292 294 293 293 294 298 301 301 300 301 300 298 299 300 300 301 297 298 299 301 303 304 306 307 308 313 312 308 310 315 319 321 323 325 326 327 329 330 332 333 334 335 336 336 336 337 338 339 340 341 342 342 343 345 347 351 352 351 351 351 351
284 289 291 290 292 294 295 297 298 299 300 297 297 297 302 298 298 300 300 297 297 300 305 309 307 307 307 308 308 311 308 315 320 321 322 324 325 326 328 330 331 332 334 334 334 335 336 337 338 339 340 341 341 342 343 344 346 350 351 352 351 351 352
282 288 290 289 292 294 292 294 297 299 306 307 308 309 311 309 308 298 296 297 300 303 309 309 315 323 324 325 322 313 313 313 320 321 322 324 325 326 327 329 331 332 333 333 334 336 337 338 338 340 341 341 341 342 343 344 347 348 350 351 351 352 352
283 287 288 292 294 286 287 298 302 301 303 308 306 305 307 309 311 307 307 309 311 306 307 317 322 325 325 326 327 327 321 314 315 320 322 324 326 326 328 329 330 331 333 334 335 336 337 338 340 341 342 342 343 344 344 345 346 348 349 351 352 352 353
281 287 289 293 288 289 300 303 303 303 304 304 308 308 308 308 309 310 311 308 310 316 320 322 326 328 329 330 330 331 331 327 323 320 321 320 324 325 326 327 329 330 331 332 333 334 336 338 339 340 341 343 344 344 345 345 346 348 349 351 352 352 353
287 287 285 285 289 300 303 302 303 304 304 302 304 307 308 309 309 309 311 314 314 313 318 324 328 328 330 332 332 332 334 335 330 328 327 325 324 323 324 325 325 326 328 331 333 334 338 339 338 339 341 344 345 345 347 346 347 348 350 351 351 353 353
281 285 283 285 295 297 300 297 297 298 296 298 298 300 305 309 309 309 311 316 318 319 319 318 323 327 332 330 331 335 336 337 340 339 337 335 333 333 332 331 332 332 332 333 338 341 338 339 339 339 342 345 346 346 346 347 347 348 349 350 352 353 354
288 282 282 283 287 287 292 297 300 303 304 304 304 301 305 311 310 310 311 316 317 319 322 323 323 322 327 323 326 333 337 338 340 343 343 344 344 343 342 342 340 340 340 341 343 340 340 340 340 341 344 346 346 346 346 347 347 347 348 349 352 354 354
285 283 281 281 281 290 295 296 299 303 305 305 305 304 302 310 310 310 311 317 319 320 321 323 324 323 320 320 326 333 337 337 338 340 343 345 345 347 348 347 347 347 347 347 349 349 347 347 346 341 345 346 346 346 347 347 348 347 347 348 350 352 355
285 284 281 279 289 283 295 299 302 304 307 308 304 297 298 307 310 309 311 313 318 321 323 324 324 324 320 322 328 335 337 337 337 338 340 344 345 346 348 348 349 350 352 352 352 351 351 349 349 341 343 345 347 346 347 347 347 347 348 349 350 351 353
286 287 284 289 291 298 301 301 304 307 309 308 299 292 302 309 311 309 309 309 312 319 321 323 320 324 328 329 333 335 336 337 337 339 341 344 346 346 347 348 352 349 350 350 350 351 352 354 354 353 351 350 350 347 342 341 343 345 346 348 350 351 351
282 283 282 283 288 298 303 304 307 309 306 295 293 306 313 312 311 310 308 307 308 314 320 320 322 323 326 329 330 330 332 334 335 338 340 343 344 347 350 352 349 347 348 348 349 349 350 352 355 356 355 353 351 350 350 349 351 357 353 342 344 348 349
288 289 288 286 282 295 306 305 306 306 300 300 308 311 312 313 310 309 308 308 308 309 311 316 320 321 322 323 324 326 328 330 332 334 337 339 341 342 343 344 348 346 344 344 345 346 348 349 351 352 352 351 350 349 348 348 351 353 354 352 343 344 348
287 286 284 284 294 302 308 305 297 305 306 312 313 311 307 311 309 309 307 308 309 309 309 309 313 318 320 321 322 324 325 327 330 332 335 337 340 341 342 343 343 344 342 342 343 344 345 346 347 348 349 348 350 348 346 350 352 355 353 352 342 341 344
291 288 293 296 301 307 308 310 309 311 312 313 314 312 310 308 308 312 308 308 310 309 309 309 309 310 314 319 322 322 323 325 327 328 331 334 337 339 340 341 342 342 341 340 341 342 343 344 345 345 345 346 347 345 346 351 353 353 354 354 344 340 341
296 300 301 301 300 307 308 310 308 307 309 309 311 311 308 309 309 310 309 309 310 310 310 309 308 308 309 313 318 322 323 324 326 328 329 332 335 338 340 340 340 340 340 340 340 340 341 342 343 345 343 344 343 341 345 351 351 352 355 354 354 349 341
290 288 298 298 297 300 305 306 307 306 307 308 308 307 311 311 310 309 311 310 310 311 310 309 308 308 309 310 313 319 322 323 324 325 326 328 331 334 336 339 340 339 339 339 339 340 339 340 341 342 342 343 343 343 346 347 349 350 353 355 355 354 349
291 292 296 296 297 299 306 305 304 303 304 305 305 307 307 311 313 310 309 312 311 312 310 309 308 307 308 309 310 314 319 323 323 323 325 326 328 331 334 337 339 336 338 337 338 338 337 337 339 339 340 341 342 344 345 346 347 350 354 355 354 352 352
292 295 297 295 296 299 304 304 306 306 304 305 305 305 305 307 310 310 311 311 311 313 311 311 309 307 306 308 309 310 315 321 323 322 324 326 327 329 331 334 337 335 334 337 336 337 336 335 337 337 337 338 340 341 342 343 344 347 350 354 352 349 348
287 289 291 294 288 289 295 299 301 303 304 304 304 305 304 304 307 309 311 311 312 315 313 312 310 307 307 307 308 308 310 317 321 322 323 325 326 328 331 333 333 334 336 334 335 335 333 334 336 336 336 336 337 339 340 340 342 343 346 348 348 348 347
286 292 294 295 295 295 296 298 300 301 303 303 302 302 304 305 306 310 311 311 308 310 312 313 311 309 308 307 308 308 309 312 320 323 324 324 325 327 330 331 333 333 332 336 333 332 330 333 334 334 334 334 335 337 337 338 340 341 342 345 346 347 347
294 296 296 297 295 294 296 299 300 301 303 303 301 304 306 305 308 310 310 312 310 308 310 312 313 311 308 307 308 308 309 311 317 324 325 325 324 328 330 331 332 333 331 331 330 331 330 332 331 332 333 333 332 335 336 338 339 338 340 341 342 344 345
293 297 298 298 297 297 299 300 301 302 303 305 302 303 305 306 312 313 310 311 311 311 310 310 311 312 309 308 308 308 308 310 318 327 330 329 328 329 329 331 332 332 330 329 329 329 330 332 333 333 332 332 332 333 334 337 339 339 338 340 340 342 346
Wind_Speed
12 18 11 12 13 12 9 10 15 13 8 7 4 3 1 2 4 14 2 3 4 7 5 6 5 10 15 17 19 20 19 16 15 14 15 16 17 17 18 18 18 20 17 17 17 18 17 17 18 20 21 20 21 19 19 20 19 18 19 19 18 17 16
18 12 11 12 15 5 6 10 13 5 5 3 6 7 1 5 9 7 2 9 3 5 9 3 4 7 10 12 16 20 22 18 17 17 17 18 18 18 20 21 21 21 20 21 19 17 18 20 21 21 21 20 19 19 20 20 19 19 19 18 18 17 17
8 11 7 9 13 14 11 9 10 11 8 12 7 2 9 6 6 3 3 3 6 8 6 3 7 8 10 11 14 16 18 18 19 20 22 22 21 19 18 19 17 16 16 16 17 18 20 20 19 19 19 18 17 17 18 20 21 21 20 17 16 15 15
9 5 10 13 8 11 17 7 11 7 4 9 8 10 2 4 3 2 8 1 9 6 7 9 11 10 10 9 10 15 20 20 18 17 20 21 20 19 19 18 17 18 20 21 21 21 20 20 19 18 19 17 18 18 17 17 18 17 16 17 16 16 15
8 4 6 13 12 10 11 10 8 7 5 1 4 1 4 6 4 4 2 7 6 7 7 10 12 11 11 11 13 14 17 19 19 18 20 19 20 19 19 18 19 20 20 20 20 20 19 17 15 14 15 18 18 17 17 18 19 18 17 17 16 15 14
6 8 6 3 4 6 9 11 12 11 10 6 12 10 1 3 2 3 3 10 5 10 6 11 10 10 11 10 12 14 15 17 18 17 20 20 19 20 20 20 20 20 20 20 19 17 13 13 14 17 17 16 17 18 18 18 17 17 18 17 16 15 13
10 16 19 15 16 13 10 8 10 10 5 5 7 9 7 4 5 4 3 1 13 6 7 10 11 11 12 12 9 11 12 14 16 17 18 19 21 21 20 20 20 20 20 20 19 19 18 19 19 19 18 18 18 19 18 17 17 18 17 17 15 14 14
12 17 16 14 11 5 6 7 7 9 11 11 12 9 5 6 2 7 5 3 13 6 4 7 9 10 10 10 11 12 11 12 14 18 18 17 17 19 20 19 18 17 17 15 14 14 16 16 16 17 17 17 17 17 18 17 19 19 17 16 15 14 14
8 10 4 3 1 1 1 5 5 10 12 13 3 5 2 8 10 11 6 11 14 5 2 1 2 4 5 7 8 11 13 14 16 16 14 14 18 19 18 17 17 15 14 15 15 16 17 17 17 16 17 17 17 17 17 17 17 18 17 15 15 15 15
7 11 11 4 7 8 11 7 7 8 17 14 6 8 4 10 5 7 7 12 12 12 4 6 5 4 7 9 8 9 15 17 17 15 14 14 15 16 17 16 15 16 17 17 17 17 16 16 17 17 17 17 17 16 18 17 16 15 15 14 16 16 16
10 7 7 8 6 10 6 14 15 16 15 12 10 5 6 11 4 8 11 10 11 15 16 16 14 3 6 11 4 11 13 13 14 14 14 13 15 16 17 16 16 16 15 18 19 18 18 18 17 16 16 17 17 16 17 17 15 16 16 16 16 16 16
13 12 14 17 14 16 18 15 17 18 13 11 15 13 13 7 9 10 5 5 9 18 17 16 16 8 6 6 6 10 13 12 13 13 13 15 15 15 14 14 16 17 19 19 18 18 18 17 16 15 15 16 17 17 17 16 16 16 14 15 15 16 16
10 15 19 18 15 14 15 14 16 17 17 11 15 18 7 11 10 11 5 6 8 18 19 15 16 4 6 6 7 12 16 15 12 12 14 16 17 16 16 17 18 18 18 17 18 18 18 17 17 16 15 15 14 13 14 14 15 16 15 15 16 16 15
14 17 14 15 14 12 12 14 16 18 19 16 15 12 7 15 7 8 9 9 15 18 16 9 9 5 5 7 3 3 2 8 12 14 15 17 16 16 18 17 18 18 19 18 18 18 17 17 17 16 15 15 16 17 17 16 16 16 15 16 16 15 15
14 13 9 7 8 8 10 8 8 12 10 16 15 9 7 7 2 2 6 8 13 8 1 3 4 3 1 3 4 9 12 12 13 15 16 16 17 18 18 17 18 18 18 18 17 17 17 18 18 17 17 16 16 15 15 15 16 15 15 15 16 16 16
9 7 7 16 13 11 8 5 14 18 14 3 7 4 3 5 7 2 1 4 10 7 3 0 4 6 7 3 3 3 5 9 12 14 15 15 15 16 16 18 18 17 18 16 16 17 18 18 18 17 16 15 15 16 16 16 15 13 14 14 15 14 14
7 6 12 16 14 8 1 6 12 14 8 11 12 9 12 8 3 3 8 9 3 5 5 2 4 7 7 8 5 3 3 5 12 15 15 16 16 16 17 17 17 17 18 17 18 18 17 17 18 18 18 17 17 17 16 14 13 14 14 14 13 13 13
7 12 14 12 1 0 2 3 10 13 11 12 13 7 9 9 7 1 3 7 8 5 6 2 7 10 7 4 5 4 1 4 6 8 13 16 16 16 16 17 18 17 15 14 16 18 19 19 20 19 18 19 18 15 13 11 13 13 13 13 14 14 14
6 10 11 3 4 6 1 4 9 15 9 10 9 10 13 15 17 16 10 5 4 9 6 6 4 11 8 14 16 14 11 5 2 4 6 6 10 14 14 14 14 14 15 14 12 11 12 15 13 10 11 10 6 7 10 12 12 12 13 14 14 14 14
4 4 6 4 7 3 3 1 6 14 4 8 8 7 19 17 15 13 8 9 8 4 4 4 5 4 13 17 17 15 14 11 4 4 3 4 6 7 7 10 9 10 11 14 15 15 11 10 10 12 12 11 12 12 12 13 12 13 13 13 14 13 13
2 3 5 7 7 6 3 5 10 13 9 12 10 7 9 14 14 14 12 11 11 10 7 6 7 8 11 18 15 16 15 12 10 8 4 6 7 8 6 8 6 6 7 8 7 6 6 8 9 10 9 11 11 10 11 11 12 12 12 13 14 14 14
1 4 5 4 2 5 1 3 13 6 5 9 8 4 4 14 18 15 13 12 11 11 12 11 9 11 13 13 11 13 14 12 11 12 10 9 11 11 11 10 10 10 9 9 9 11 9 7 7 6 7 9 10 11 11 10 11 12 12 14 13 13 14
5 2 1 2 1 1 3 17 18 18 9 8 6 4 8 12 18 17 14 13 13 12 11 14 12 2 14 3 8 9 10 11 11 12 11 11 12 12 11 13 13 12 11 11 10 9 8 7 4 9 10 11 11 10 10 10 11 12 13 13 12 13 14
5 4 2 3 1 2 12 17 18 18 16 10 2 4 6 12 17 17 15 14 14 15 16 10 9 13 13 5 6 9 9 8 9 11 11 12 13 13 13 14 14 13 13 15 14 12 10 5 2 6 9 9 8 8 8 8 9 12 13 12 13 12 13
6 6 4 1 2 2 10 16 19 17 13 4 4 8 2 10 12 13 13 15 15 12 12 11 9 9 8 7 8 9 10 12 14 13 11 11 11 12 13 12 14 15 15 15 13 11 7 6 7 6 8 8 5 4 4 4 3 3 3 4 6 8 10
3 4 3 5 2 3 11 18 15 16 3 7 6 4 5 8 12 11 13 14 15 12 12 9 8 7 10 11 11 13 13 12 11 12 11 12 13 12 11 13 14 15 14 14 14 13 10 11 10 9 11 12 9 8 8 7 4 4 4 3 4 5 7
2 3 3 4 4 5 15 17 8 18 8 5 4 4 5 8 10 12 12 12 11 11 10 10 10 13 14 13 12 12 13 14 14 13 13 12 12 12 12 14 12 14 15 14 14 12 10 11 10 9 12 12 8 7 9 4 3 2 3 3 4 6 9
3 5 6 4 5 5 10 10 6 7 7 4 3 4 7 8 9 10 9 11 11 11 10 11 12 13 13 14 13 13 14 14 13 13 12 11 10 11 11 11 10 13 14 12 12 11 10 10 10 10 11 10 8 9 7 3 3 3 3 1 2 4 5
4 3 4 4 4 1 5 6 7 6 7 7 6 6 6 8 10 9 7 10 12 11 11 11 12 11 12 10 10 11 12 12 13 13 12 12 10 9 10 10 9 10 11 12 11 11 9 9 9 9 8 10 9 9 4 3 5 5 5 4 1 3 4
10 3 3 1 6 4 3 7 8 9 10 11 11 8 7 8 8 10 8 10 11 11 10 9 11 11 11 12 12 12 12 13 13 12 12 13 12 11 8 8 8 7 9 10 11 11 9 7 7 7 7 8 9 3 3 5 6 6 6 6 6 3 2
7 2 4 9 9 8 3 4 6 8 11 10 10 12 10 7 10 11 13 12 12 11 10 9 7 10 11 12 12 11 10 11 12 12 12 11 10 10 11 8 5 7 7 9 9 9 9 6 6 7 6 6 4 3 3 3 3 3 4 5 6 6 4
5 5 6 11 12 8 5 4 4 7 9 11 13 11 12 11 5 8 12 12 11 10 9 9 7 8 8 10 11 11 11 10 9 10 11 11 10 9 7 7 5 4 6 7 7 7 7 5 6 7 7 7 6 6 6 6 6 6 6 5 5 5 6
8 10 4 17 20 7 10 7 7 6 8 8 10 13 14 13 12 12 9 11 9 9 9 8 8 8 9 8 8 10 10 11 12 10 9 10 9 8 10 7 6 4 4 6 5 6 5 3 5 6 6 5 5 6 5 5 5 6 6 5 5 4 4
4 3 8 14 10 11 9 7 3 7 8 9 9 10 13 14 12 13 11 10 11 7 10 8 7 8 7 8 7 9 8 8 9 11 11 9 10 11 9 8 7 5 4 4 6 6 5 5 6 7 6 6 5 4 4 4 5 6 5 5 5 6 5
9 11 13 8 11 16 17 17 16 8 6 8 9 10 10 13 13 10 10 9 11 10 10 9 7 8 7 7 7 8 8 8 8 7 8 9 9 9 8 8 10 5 3 3 4 4 3 4 5 5 5 4 5 5 4 4 4 4 4 5 5 5 5
14 13 12 11 12 14 18 17 16 15 8 7 9 8 8 10 11 9 6 6 7 11 8 8 6 6 7 6 4 7 8 7 7 8 7 8 5 5 5 5 6 6 3 4 3 3 2 4 4 4 4 4 4 4 4 4 4 3 4 4 4 4 4
14 15 14 14 15 18 16 18 18 15 9 6 8 9 9 10 8 4 7 5 4 7 8 7 9 7 6 6 4 4 4 6 7 6 6 7 8 7 7 8 8 6 4 1 2 2 3 4 5 4 5 4 4 3 4 4 4 4 3 3 3 3 3
Wind_Direction
191 202 189 195 165 204 183 179 208 211 96 166 217 285 244 117 132 238 117 282 288 306 326 230 172 180 201 205 207 205 208 199 195 200 201 202 200 195 193 196 197 200 194 191 193 193 189 185 184 187 187 187 188 186 187 190 191 189 189 189 190 192 193
211 211 187 196 195 149 116 197 209 94 129 127 185 209 209 197 202 250 166 211 246 190 239 275 172 171 194 194 207 208 209 198 186 196 199 200 201 197 195 196 197 196 192 192 192 192 190 189 188 188 188 187 187 187 187 188 189 190 192 190 191 192 192
278 220 194 213 209 192 208 221 116 173 165 209 203 130 230 206 220 261 290 198 228 195 234 207 202 197 195 192 200 205 210 204 197 194 198 199 199 196 195 199 197 193 193 192 192 194 194 192 188 189 187 185 186 189 189 189 191 192 189 190 192 193 193
325 292 188 212 211 211 213 112 175 174 160 219 175 204 163 125 247 201 273 166 228 207 207 187 201 203 206 178 177 200 206 209 203 197 199 198 196 195 196 195 193 192 193 191 192 193 193 190 188 187 184 184 188 189 188 192 194 191 189 191 191 193 194
326 235 184 207 198 191 204 194 195 188 213 208 181 310 162 198 185 201 194 256 256 249 215 183 196 209 209 187 177 193 202 208 206 196 196 198 195 195 194 193 193 193 194 193 193 193 194 189 183 180 182 187 188 186 190 191 191 190 191 193 192 195 190
309 267 250 197 216 220 207 207 208 199 181 147 186 232 55 122 135 221 168 258 278 260 195 193 199 207 207 210 181 189 198 202 203 200 198 194 193 195 193 193 192 192 192 193 191 189 185 178 179 182 186 185 187 190 191 190 191 192 192 192 193 193 191
265 266 275 305 296 289 280 232 218 202 179 145 175 211 229 171 222 127 161 293 267 222 198 195 200 207 210 211 193 188 200 200 200 202 199 194 191 191 193 193 192 191 190 189 185 183 181 183 185 185 183 187 189 190 190 190 190 193 192 192 191 189 191
263 259 259 262 255 254 283 266 227 186 203 197 211 204 176 183 198 225 267 263 267 285 221 214 223 223 217 210 200 184 192 203 209 203 198 189 191 194 193 191 190 189 187 182 177 180 182 185 186 185 186 187 188 189 190 189 193 193 190 190 189 189 192
315 290 279 258 315 127 12 328 267 210 210 206 209 95 155 194 204 199 176 241 258 270 73 244 325 291 253 230 216 182 189 199 202 208 200 183 189 192 192 190 186 180 172 172 179 184 186 187 188 186 186 187 188 189 189 191 195 191 190 188 187 189 191
221 207 209 206 349 336 305 257 296 266 213 200 157 190 182 208 232 175 197 240 255 276 291 284 270 286 274 249 231 198 196 194 201 198 190 181 186 192 187 184 176 174 176 178 181 183 186 189 188 187 187 186 188 188 191 191 190 187 189 187 190 189 192
248 290 306 273 303 317 296 297 311 300 293 217 190 118 159 205 196 187 222 219 259 272 271 269 268 224 275 285 221 194 205 208 196 187 182 179 184 188 185 179 178 176 174 180 184 184 186 188 188 187 186 187 188 188 190 190 188 187 188 188 190 191 192
252 265 274 288 294 277 271 270 278 283 279 261 199 186 211 148 118 223 245 202 223 252 256 255 266 278 299 267 235 207 200 191 183 184 181 178 183 186 180 176 173 176 180 183 183 186 186 188 188 187 188 188 188 188 189 187 186 187 187 188 189 192 192
276 276 276 274 271 249 258 260 265 273 275 271 223 206 181 146 199 216 230 193 215 246 249 251 254 258 253 246 229 211 197 186 179 173 176 178 184 181 176 178 177 179 180 182 184 184 186 185 184 186 187 189 189 190 189 188 187 189 185 186 189 191 193
289 274 255 255 245 261 255 255 254 256 258 256 243 212 161 181 205 200 199 193 219 235 249 260 277 282 235 248 189 299 222 176 173 175 176 180 182 179 178 179 181 181 181 182 183 183 182 183 184 184 187 190 191 191 190 188 188 187 181 187 188 191 194
293 282 272 265 283 291 292 284 306 289 264 236 234 204 179 177 241 266 219 205 235 256 246 264 288 326 281 261 164 195 198 178 176 177 179 180 182 180 180 180 181 182 183 184 182 180 181 183 182 185 189 192 192 193 192 190 190 186 182 186 189 191 196
294 302 337 325 330 301 259 295 349 346 337 248 199 163 317 163 188 217 110 219 253 276 280 258 357 32 37 351 326 253 227 189 176 176 179 180 181 179 180 182 181 182 183 180 179 182 183 183 184 186 189 190 189 196 193 192 188 181 184 187 189 191 193
259 285 326 317 308 312 9 358 359 327 356 92 86 60 38 24 245 160 188 235 223 271 298 63 33 61 47 39 355 337 306 243 183 180 180 180 179 181 182 181 183 182 181 181 182 184 182 183 186 190 188 186 193 195 192 189 179 182 185 185 184 189 191
281 310 310 302 3 71 249 196 30 351 18 31 65 38 22 8 34 217 225 256 281 305 350 344 105 70 61 65 46 27 9 230 232 196 185 180 181 183 182 181 181 181 183 183 183 183 182 185 189 190 187 190 195 191 185 176 182 182 180 183 185 190 192
289 305 310 140 125 208 174 128 47 359 344 32 72 63 37 21 15 9 354 335 25 26 23 331 84 107 92 63 41 28 11 34 122 181 189 193 184 184 183 182 182 179 179 176 174 178 187 189 187 179 187 189 160 163 175 183 183 180 182 184 188 191 193
304 315 327 166 186 267 346 107 13 1 18 27 340 25 20 20 15 1 346 341 358 11 4 335 322 54 86 60 41 23 17 20 37 72 74 126 141 166 177 172 166 162 166 170 175 182 176 166 172 181 180 168 170 180 181 182 181 183 182 186 190 192 193
198 295 295 251 325 323 341 6 358 355 342 329 352 17 10 8 6 3 349 350 359 357 322 323 273 298 41 53 33 8 14 14 23 53 56 92 106 103 95 113 116 113 111 109 108 107 133 165 172 178 164 167 173 172 178 181 181 183 184 189 192 192 194
101 4 325 335 52 216 323 318 300 301 257 285 283 271 350 3 2 360 356 5 352 6 355 336 317 286 57 34 25 356 9 10 21 41 49 66 82 93 98 94 101 105 107 109 115 122 126 135 151 145 153 167 169 176 182 176 177 185 188 194 192 191 194
343 333 259 258 211 259 23 326 311 315 315 276 302 204 47 1 352 355 352 6 8 10 3 352 341 112 71 352 27 353 1 14 20 40 42 53 68 76 85 99 100 97 98 102 101 97 103 110 163 162 161 164 167 178 180 179 182 189 197 196 192 192 193
223 242 287 279 242 261 326 317 321 316 312 325 224 92 40 347 335 353 357 9 11 16 13 351 13 57 99 64 17 358 358 11 24 39 41 49 63 74 81 79 88 92 95 88 76 77 72 56 58 149 147 151 162 168 177 177 185 199 203 200 199 195 193
230 226 248 304 18 291 317 324 319 311 304 276 83 84 54 328 323 348 3 13 10 13 22 9 34 33 53 55 41 20 14 24 28 32 39 49 57 66 73 84 86 81 77 80 81 76 69 60 62 79 105 102 102 128 144 152 213 245 269 240 209 205 196
232 209 175 200 182 237 325 331 322 325 4 50 63 56 352 328 333 339 6 17 13 11 25 20 24 24 40 44 40 31 24 30 26 27 33 46 53 58 65 72 78 86 81 80 79 70 64 63 64 70 81 82 78 73 69 46 351 305 302 271 217 186 194
324 348 11 37 358 339 356 327 338 9 52 47 13 319 355 343 349 348 5 10 4 5 15 4 14 22 27 30 28 29 25 26 26 21 23 33 45 47 53 58 62 78 79 74 72 73 64 63 63 67 74 76 74 67 55 20 317 299 288 274 229 208 193
334 19 33 38 322 338 345 8 34 37 45 345 10 23 4 356 355 359 360 358 0 360 6 9 13 19 18 21 19 23 24 21 20 23 22 23 34 50 51 58 61 70 78 77 75 68 64 61 61 60 69 70 62 55 36 340 348 349 9 355 206 209 214
21 310 35 349 333 254 8 360 35 45 40 8 18 48 40 9 353 338 355 348 344 359 0 13 18 17 12 12 16 26 18 18 19 19 17 18 18 27 47 46 47 59 71 76 72 67 62 66 62 62 61 67 56 45 4 7 10 8 350 355 80 181 217
306 236 157 178 31 347 59 28 24 33 19 13 3 15 37 28 357 342 337 337 337 345 357 9 13 15 356 4 8 20 18 18 13 14 16 17 18 19 23 35 39 51 62 67 71 71 61 62 72 71 67 67 64 31 355 13 10 3 1 359 358 342 224
341 206 14 28 359 336 70 50 30 32 37 8 1 352 4 17 14 348 331 334 335 341 346 11 7 8 358 359 2 6 19 20 14 9 10 10 14 17 16 5 23 45 52 61 64 67 62 48 62 66 70 69 79 78 60 40 31 14 18 9 348 343 323
289 314 341 349 339 297 157 102 32 34 43 15 352 349 344 326 360 359 326 321 330 336 345 354 359 5 3 4 357 360 360 3 9 8 1 1 2 5 13 9 13 46 68 74 76 71 64 50 53 56 52 44 35 31 27 22 17 21 21 16 355 329 316
287 272 327 357 336 8 145 132 98 62 47 34 348 345 335 329 326 330 326 320 323 327 334 333 353 2 4 3 353 358 353 351 355 359 358 351 352 352 2 1 10 16 56 73 75 78 72 74 72 69 63 54 41 35 27 25 20 25 14 2 357 336 319
316 15 349 354 336 310 287 252 120 4 358 8 349 336 325 322 328 325 324 318 331 326 323 337 337 1 350 356 355 357 350 342 336 344 350 352 350 350 349 355 10 13 22 58 56 51 38 43 57 57 50 39 28 25 20 23 28 32 12 5 4 349 341
300 312 312 295 280 276 266 279 294 300 319 318 315 313 311 308 312 306 322 323 334 335 326 326 344 343 350 338 350 356 348 335 324 323 343 345 347 343 341 356 1 3 18 61 70 58 41 57 66 67 60 43 26 6 6 9 27 33 30 20 2 357 354
289 291 296 294 283 277 288 290 287 289 276 272 273 268 270 286 291 296 317 321 320 315 321 328 342 336 333 336 344 349 334 325 328 320 334 334 330 326 336 355 359 357 359 58 71 89 84 81 78 73 64 39 21 355 355 2 17 30 44 41 7 345 349
298 300 294 286 274 271 273 279 282 277 266 225 243 234 226 248 257 236 269 276 267 300 312 330 327 332 321 319 324 325 318 308 310 313 327 328 333 339 338 348 353 346 311 255 171 150 115 93 80 70 58 12 358 354 354 355 15 17 15 34 17 346 360